• MPC Preparation (Info)

  • MPEC 2022-A48 : 2022 AX

    The following Minor Planet Electronic Circular may be linked-to from your own Web pages, but must not otherwise be redistributed electronically.

    A form allowing access to any MPEC is at the bottom of this page.


    Read MPEC 2022-A47 Read MPEC 2022-A49


    M.P.E.C. 2022-A48                               Issued 2022 January 6, 17:58 UT
    
         The Minor Planet Electronic Circulars contain information on unusual
             minor planets and routine data on comets.  They are published
        on behalf of Division F of the International Astronomical Union by the
              Minor Planet Center, Smithsonian Astrophysical Observatory,
                              Cambridge, MA 02138, U.S.A.
    
                 Prepared using the Tamkin Foundation Computer Network
    
                                  MPC@CFA.HARVARD.EDU
                URL https://www.minorplanetcenter.net/    ISSN 1523-6714
    
                                     2022 AX                                 
    
    
    Observations:
         K22A00X* C2022 01 05.35938608 42 53.74 +21 37 38.5          20.83GVEA048G96
         K22A00X  C2022 01 05.36454508 42 46.98 +21 37 44.1          20.81GVEA048G96
         K22A00X  C2022 01 05.37490108 42 33.56 +21 37 55.2          21.02GVEA048G96
         K22A00X KC2022 01 05.39462008 42 08.01 +21 38 14.9          20.59GVEA048I52
         K22A00X KC2022 01 05.39658408 42 05.48 +21 38 16.9          20.58GVEA048I52
         K22A00X KC2022 01 05.39756808 42 04.18 +21 38 17.6          20.72GVEA048I52
         K22A00X KC2022 01 05.44612208 41 01.63 +21 39 01.6          19.97GVEA048I52
         K22A00X KC2022 01 05.44808708 40 59.24 +21 39 02.7          20.87GVEA048I52
         K22A00X KC2022 01 05.44907008 40 57.92 +21 39 03.5          19.67GVEA048I52
         K22A00X KC2022 01 06.03026008 29 50.81 +21 45 50.8          20.4 GVEA048J95
         K22A00X KC2022 01 06.03654808 29 43.45 +21 45 55.0          20.3 GVEA048J95
         K22A00X KC2022 01 06.04471008 29 33.86 +21 45 59.9          20.5 GVEA048J95
         K22A00X KC2022 01 06.05170108 29 25.68 +21 46 05.0          20.6 GVEA048J95
         K22A00X KC2022 01 06.49758308 21 13.34 +21 50 29.4                VEA048I52
         K22A00X KC2022 01 06.50032008 21 10.31 +21 50 30.0          20.42GVEA048I52
    
    Observer details:
    G96 Mt. Lemmon Survey.  Observer A. R. Gibbs.  Measurers E. J. Christensen, G.
        A. Farneth, D. C. Fuls, A. R. Gibbs, A. D. Grauer, H. Groeller, R. A.
        Kowalski, S. M. Larson, G. J. Leonard, D. Rankin, R. L. Seaman, F. C.
        Shelly, K. W. Wierzchos.  1.5-m reflector + 10K CCD.
    I52 Steward Observatory, Mt. Lemmon Station.  Observer R. A. Kowalski.
        Measurers E. J. Christensen, G. A. Farneth, D. C. Fuls, A. R. Gibbs, A. D.
        Grauer, H. Groeller, R. A. Kowalski, S. M. Larson, G. J. Leonard, D.
        Rankin, R. L. Seaman, F. C. Shelly, K. W. Wierzchos, A. Serrrano.
    J95 Great Shefford.  Observer P. Birtwhistle.  0.41-m f/6.3 Schmidt-Cassegrain
        + CCD.
    
    Orbital elements:
    2022 AX                                                  Earth MOID = 0.0070 AU
    Epoch 2022 Jan. 21.0 TT = JDT 2459600.5                 Veres                   
    M 117.80988              (2000.0)            P               Q                  
    n   1.12962780     Peri.   47.21030     +0.91744431     +0.39651193             
    a   0.9130877      Node   289.40524     -0.37442637     +0.83260742             
    e   0.2831597      Incl.    1.99139     -0.13453929     +0.38670812             
    P   0.87           H   26.61          G   0.15           U   7                  
    Residuals in seconds of arc
    220105 G96  0.5+  0.1-    220105 I52  0.1-  0.3-    220106 J95  0.1+  0.2+
    220105 G96  0.3-  0.0     220105 I52  1.1-  0.6+    220106 J95  0.0   0.4-
    220105 G96  0.0   0.1+    220105 I52  0.6+  0.1+    220106 J95  0.2+  0.1+
    220105 I52  0.2+  0.1-    220105 I52  0.3-  0.2+    220106 I52  0.1+  0.3-
    220105 I52  0.3+  0.0     220106 J95  0.2-  0.3+    220106 I52  0.2-  0.1+
    
    Ephemeris:
    2022 AX                  a,e,i = 0.91, 0.28, 2                   q = 0.6545
    Date    TT    R. A. (2000) Decl.     Delta      r    Elong.  Phase     V
    2021 12 07    16 07 14.6 -11 49 04   0.1078  0.8818    15.5   162.6    33.5
    ...
    2021 12 22    14 27 18.7 -02 07 33   0.04802 0.9575    55.7   121.9    24.9
    ...
    2021 12 30    11 35 10.2 +13 47 39   0.03243 0.9945   109.1    69.2    21.6
    ...
    2022 01 05    08 50 20.8 +21 31 18   0.04062 1.0203   154.9    24.1    20.8
    2022 01 06    08 30 23.6 +21 47 11   0.04344 1.0244   160.6    18.6    20.8
    2022 01 07    08 12 52.4 +21 53 46   0.04652 1.0285   165.7    13.7    20.8
    ...
    2022 01 13    07 05 25.9 +21 14 34   0.06888 1.0519   172.6     6.9    21.4
    ...
    2022 01 21    06 27 27.4 +20 06 16   0.1044  1.0800   155.7    22.1    22.9
    ...
    2022 02 05    06 08 55.2 +19 10 15   0.1804  1.1229   136.1    37.5    24.7
    
    M. P. C. Staff               (C) Copyright 2022 MPC           M.P.E.C. 2022-A48
    


    Read MPEC 2022-A47 Read MPEC 2022-A49


    MPEC number:

    Enter an MPEC number in one of the following forms:

    • 1997-B01 (the full form)
    • J97B01 (the packed version of the full form)
    • B01 (the abbreviated form)